Skip Page Navigation
NASA JPL Caltech
NASA Logo - Jet Propulsion Laboratory + View the NASA Portal
+ Near-Earth Object (NEO) Program
Search JPL
JPL Home Earth Solar System Stars & Galaxies Technology
JPL Solar System Dynamics
BODIES ORBITS EPHEMERIDES TOOLS PHYSICAL DATA DISCOVERY FAQ SITE MAP
JPL Small-Body Database Browser
Search: [ help ]  
10602 Masakazu (1996 UG3)
Classification: Main-belt Asteroid          SPK-ID: 2010602
Ephemeris | Orbit Diagram | Orbital Elements | Physical Parameters | Discovery Circumstances | Close-Approach Data ]

[ show orbit diagram ]
Orbital Elements at Epoch 2456800.5 (2014-May-23.0) TDB
Reference: JPL 4 (heliocentric ecliptic J2000)
 Element Value Uncertainty (1-sigma)   Units 
e .2007083475121163 6.6525e-08  
a 2.669811386525145 2.6812e-08 AU
q 2.133957954966651 1.7789e-07 AU
i 13.32597475598544 9.2943e-06 deg
node 27.45219809052171 2.6418e-05 deg
peri 287.4087985895143 3.6729e-05 deg
M 67.5781218586575 2.8637e-05 deg
tp 2456501.395521923436
(2013-Jul-27.89552192)
0.0001259 JED
period 1593.379767682435
4.36
2.4003e-05
6.572e-08
d
yr
n .2259348381984407 3.4035e-09 deg/d
Q 3.205664818083639 3.2194e-08 AU
  Orbit Determination Parameters
   # obs. used (total)      940  
   data-arc span      19070 days (52.21 yr)  
   first obs. used      1961-10-18  
   last obs. used      2014-01-03  
   planetary ephem.      DE431  
   SB-pert. ephem.      SB431-BIG16  
   condition code      0  
   fit RMS      .52344  
   data source      ORB  
   producer      Otto Matic  
   solution date      2014-Jun-09 19:51:58  

Additional Information
 Earth MOID = 1.16501 AU 
 T_jup = 3.315 
[ show covariance matrix ]

Ephemeris | Orbit Diagram | Orbital Elements | Physical Parameters | Discovery Circumstances | Close-Approach Data ]

Physical Parameter Table
Parameter Symbol Value Units Sigma Reference Notes
absolute magnitude H 12.6 mag n/a MPO259418  

10602 Masakazu           Discovered 1996 Oct. 16 by S. Otomo at Kiyosato.
Masakazu Kusakabe (b. 1946) is a ceramic artist, best known for his design of the Smokeless Wood Fire Kiln.
NOTE: some special characters may not display properly (any characters within {} are an attempt to place the proper accent above a character)
Reference: 20111210/MPCPages.arcLast Updated: 2011-12-12

[ show close-approach data ]
Alternate Designations
 1996 UG3 = 1961 UR = 1987 RM3 
Ephemeris | Orbit Diagram | Orbital Elements | Physical Parameters | Discovery Circumstances | Close-Approach Data ]
ABOUT SSD CREDITS/AWARDS PRIVACY/COPYRIGHT GLOSSARY LINKS
FirstGov 2014-Jul-23 03:43 UT
(server date/time)  
NASA Home Page
Site Manager:   Donald K. Yeomans
Webmaster  Alan B. Chamberlin